Regional Weather Roundup
Issued by NWS Grand Forks, ND

Home | Current Version | Previous Version | Graphics & Text | Print | Product List | Glossary On
Versions: 1 2 3 4 5 6 7 8 9 10 11 12 13 14 15 16 17 18 19 20 21 22 23 24 25 26 27 28 29 30 31 32 33 34 35 36 37 38 39 40 41 42 43 44 45 46 47 48 49 50
000
ASUS43 KFGF 051331
RWRFGF
PRAIRIE TO PINES  WEATHER ROUNDUP
NATIONAL WEATHER SERVICE EASTERN NORTH DAKOTA/GRAND FORKS ND
800 AM CDT SUN JUL 05 2015

 **SATELLITE DATA USED TO AUGMENT SKY COVER AT AUTOMATED STATIONS**
 *****  WEATHER ACROSS EASTERN NORTH DAKOTA  *****

CITY           SKY/WX    TMP DP  RH WIND       PRES   REMARKS
GRAND FORKS    PTSUNNY   70  67  90 S16       29.74F
GRAND FRKS AFB MOSUNNY   69  67  93 S10       29.75S
GRAND FRKS NWS   N/A     70 N/A N/A S10         N/A
DEVILS LAKE    CLOUDY    70  64  83 SE6       29.72F
FARGO          SUNNY     73  65  75 SE12      29.76F
WAHPETON ARPT  MOSUNNY   70  63  78 S17       29.79S
$$

 ***** WEATHER ACROSS CENTRAL AND WESTERN NORTH DAKOTA  *****

CITY           SKY/WX    TMP DP  RH WIND       PRES   REMARKS
BISMARCK       TSTM      71  68  90 W10       29.80S
MINOT          RAIN      64  62  93 NW9       29.87R FOG
JAMESTOWN      MOSUNNY   72  66  81 SW5       29.73R
MINOT AFB      RAIN      64  64 100 NW12      29.86R
GARRISON         N/A     65  62  90 N25G33    29.81R
WILLISTON      CLOUDY    65  63  93 N12       29.88S FOG
DICKINSON      CLOUDY    63  60  90 N16G26    29.85R
HETTINGER      RAIN      63  61  93 N26G36    29.86R FOG
$$

 *****  OTHER AIRPORT OBSERVATIONS IN OUR AREA  *****

CITY           SKY/WX    TMP DP  RH WIND       PRES   REMARKS
WALHALLA       FAIR      64  64 100 MISG      29.79R
GRAFTON AIRPOR PTSUNNY   68  68 100 N7        29.77S THUNDER
VALLEY CITY AR FAIR      72  72 100 SE13      29.76R
CANDO          CLOUDY    64  63  94 N17G23    29.76F
CAVALIER APRT  LGT RAIN  64  64 100 NE3       29.78S
GWINNER          N/A     73  70  88 SE12      29.77F
ROLLA          FOG       61  61 100 N16       29.82F VSB 1/4
 ***** THE ABOVE OBSERVATIONS ARE NON NWS ARE NOT QUALITY
       CONTROLLED AND MAY MIS-REPORT RAIN FOR SNOW...
$$

  *****  WEATHER ACROSS NORTHERN MINNESOTA  *****

CITY           SKY/WX    TMP DP  RH WIND       PRES   REMARKS
FLAG ISLAND    NOT AVBL
WARROAD        MOSUNNY   70  64  83 W5        29.80R
ROSEAU         PTSUNNY   66  61  82 NW8       29.79R
HALLOCK        CLOUDY    66  64  94 CALM      29.76S
THF RVR FALLS  PTSUNNY   70  64  83 S9        29.75F
BAUDETTE       PTSUNNY   68  64  87 SW6       29.78R
WASKISH        CLOUDY    66  64  94 S6        29.79F
CROOKSTON      MOSUNNY   72  66  83 S15       29.74F
$$
  *****  WEATHER ACROSS CENTRAL AND WEST MINNESOTA  *****

CITY           SKY/WX    TMP DP  RH WIND       PRES   REMARKS
FOSSTON        CLOUDY    66  63  88 S9        29.79F
BEMIDJI        LGT RAIN  66  64  94 S6        29.82F
PARK RAPIDS    PTSUNNY   69  62  78 SE9       29.86F HAZE
ELBOW LAKE     FAIR      68  63  83 SE14      29.84R
WADENA         MOSUNNY   68  63  83 SE8       29.84F
DETROIT LAKES  MOSUNNY   70  63  78 SE14      29.82F
MOORHEAD       SUNNY     73  66  78 SE8       29.77F
FERGUS FALLS   PTSUNNY   72  64  78 S16       29.79F
MORRIS MN      PTSUNNY   70  64  83 SE10      29.83S
STAPLES        PTSUNNY   70  61  73 S7        29.87F
$$
  *****  WEATHER ELSEWHERE ACROSS MINNESOTA  *****

CITY           SKY/WX    TMP DP  RH WIND       PRES   REMARKS
DULUTH         PTSUNNY   65  60  84 S12       29.92S HAZE
INTRNTL FALLS  CLOUDY    66  64  93 CALM      29.81R FOG
ELY            CLOUDY    68  61  77 SW12      29.88R
CLOQUET        MOSUNNY   63  61  94 S7        29.93S FOG
WHEATON        MOSUNNY   70  64  83 SE10      29.82S
BRAINERD       PTSUNNY   66  61  84 S8        29.90F HAZE
HIBBING        PTSUNNY   65  61  87 VRB6      29.89S
ALEXANDRIA     PTSUNNY   68  62  81 S12       29.88R
SAINT CLOUD    PTSUNNY   67  62  84 S6        29.91S
MINNEAPOLIS    CLOUDY    72  61  68 S8        29.94F
$$

  *****  WEATHER ACROSS SOUTH DAKOTA  *****

CITY           SKY/WX    TMP DP  RH WIND       PRES   REMARKS
SIOUX FALLS    LGT RAIN  67  65  93 E8        29.92R FOG
BROOKINGS      PTSUNNY   66  63  88 S14G20    29.86F
WATERTOWN      MOSUNNY   71  65  81 S17G24    29.83R
HURON          SUNNY     72  65  78 S16G28    29.79S
SISSETON         N/A     72  66  81 S8        29.79R
ABERDEEN       SUNNY     70  64  83 MISG      29.75R
MITCHELL       SUNNY     72  65  78 SE14G23   29.84R
PIERRE           N/A     71  66  84 E8        29.72S
MOBRIDGE       SUNNY     72  69  90 S8        29.70S
RAPID CITY     SUNNY     69  65  86 SE5       29.76F
$$

  *****  SOME WEATHER IN NEARBY STATES *****

CITY           SKY/WX    TMP DP  RH WIND       PRES   REMARKS
GLASGOW MT     CLOUDY    61  52  72 N10       29.95S HAZE
GREAT FALLS MT CLOUDY    51  50  96 N12       30.13R FOG
CHEYENNE WY    PTSUNNY   70  49  47 W10       30.03R
SCOTTSBLUFF NE MOSUNNY   67  63  87 CALM      29.86F
OMAHA NE       CLOUDY    71  64  78 S15       29.93S
DES MOINES IA  CLOUDY    69  62  78 S8        29.99R
DAVENPORT IA   SUNNY     68  64  87 S5        30.06S
CHICAGO IL     SUNNY     69  60  73 W3        30.09R FOG
EAU CLAIRE WI  SUNNY     69  60  73 S10       29.98F
LA CROSSE WI   SUNNY     69  62  78 S9        30.02R
$$

  *****  SOME NATIONAL WEATHER *****

CITY           SKY/WX    TMP DP  RH WIND       PRES   REMARKS
LA GUARDIA NY  PTSUNNY   73  60  63 N3        30.12R
RALEIGH NC     PTSUNNY   80  71  74 SW7       30.12S
ATLANTA GA     PTSUNNY   72  66  83 W9        30.16R
NEW ORLEANS LA CLOUDY    81  75  82 SW3       30.11R
OKLAHOMA CITY  MOSUNNY   75  72  90 S10       29.99R
ALBUQUERQUE NM CLOUDY    66  58  75 E6        30.14S
SALT LAKE CITY CLOUDY    77  61  57 S5        30.00R
LOS ANGELES CA CLOUDY    64  60  87 W7        29.96R
BOISE ID       CLOUDY    75  47  36 S3        29.87R
SEATTLE WA     PTCLDY    62  50  64 NW3       29.83R
$$

*** WEATHER ACROSS MANITOBA...SASKATCHEWAN AND ONTARIO ***
                ***ONTARIO***

CITY           SKY/WX    TMP DP  RH WIND       PRES   REMARKS
GERALDTON      CLOUDY    59  54  82 S7        29.90R
THUNDER BAY    CLOUDY    59  55  88 NE7       29.90S
SIOUX LOOKOUT  PTSUNNY   64  63  94 VRB2      29.83S
TORONTO        PTSUNNY   70  55  60 SE5       30.12S
BIG TROUT LK   SUNNY     63  59  88 W6        29.68S FOG
PICKLE LAKE    CLOUDY    66  61  82 W12G20    29.78R
DRYDEN         SUNNY     64  63  94 E3        29.81F
KENORA         CLOUDY    64  63  94 VRB2      29.82R
$$
                *** MANITOBA***

CITY           SKY/WX    TMP DP  RH WIND       PRES   REMARKS
BRANDON        CLOUDY    61  59  94 N6        29.84S FOG
DAUPHIN        PTSUNNY   59  55  88 SW8       29.85S FOG
ISLAND LAKE    CLOUDY    59  57  94 W8        29.72R SMOKE
PILOT MOUND      N/A     63  63 100 N13         N/A
THE PAS        CLOUDY    57  52  82 NW14      29.81R SMOKE
THOMPSON       NOT AVBL
WINNIPEG       CLOUDY    64  64 100 N5        29.79S FOG
LYNN LAKE      LGT RAIN  45  43  93 N14G28    29.83R
CHURCHILL      LGT RAIN  39  39 100 NE29G38   29.69R FOG
$$
                ***SASKATCHEWAN***

CITY           SKY/WX    TMP DP  RH WIND       PRES   REMARKS
ESTEVAN        CLOUDY    63  61  94 VRB5      29.88F FOG
KINDERSLEY     PTSUNNY   52  48  87 NW8       30.04R
LLOYDMINSTER   CLOUDY    54  50  87 NW9       30.04S SMOKE
PRINCE ALBERT  CLOUDY    54  50  87 NW10G17   29.92  SMOKE
REGINA         CLOUDY    59  55  88 NW9       29.91F SMOKE
YORKTON        FOG       55  54  94 NW5       29.87F VSB 1
N. BATTLEFORD  MOSUNNY   54  50  87 NW12G18   30.02R FOG
LA RONGE       NOT AVBL
SASKATOON      MOSUNNY   55  50  82 W8        29.98R
SWIFT CURRENT  PTSUNNY   55  50  82 W15G22    30.04R
$$
NOTE: THESE ARE AUTOMATED STATIONS WITH LIMITED QUALITY CONTROL
      "FAIR" INDICATES FEW OR NO CLOUDS BELOW 12,000 FEET WITH NO
      SIGNIFICANT WEATHER AND/OR OBSTRUCTIONS TO VISIBILITY.
      SKY/WX - SKY CONDITION AND SIGNIFICANT WEATHER.
      TMP - AIR TEMPERATURE.    DP   - DEWPOINT TEMPERATURE.
      RH  - RELATIVE HUMIDITY.  PRES - PRESSURE.
      HX  - HEAT INDEX.         WCI  - WIND CHILL INDEX.
$


USA.gov is the U.S. government's official web portal to all federal, state and local government web resources and services.